Location: Badlands Tank
(34.7185°N, 107.0376°W)
Time: 14:29:11
(UTC+00:00)

Meteor 2-5 Rocket - Pass Details

Date: 15 November 2025
Orbit: 832 x 911 km, 81.2° (Epoch: 09 December)

Event Time Altitude Azimuth Distance (km) Brightness Sun altitude
Exits shadow 11:52:13 17° 343° (NNW) 2,099 5.5 -22.7°
Drops below altitude 10° 11:53:37 10° 350° (N) 2,553 6.0 -22.4°
Sets 11:56:15 0° 359° (N) 3,483 6.8 -21.8°
